CYYC

Calgary International Airport

Airport
ICAO code
CYYC
IATA Code
YYC
Summary
ICAO Region
NAM
ICAO Territory
Location

Calgary, Alberta

Serving
Calgary
Elevation
3557 ft
Coordinates
51° 7' 7" N , 114° 1' 14" W
KCC
Airport LOS
Parallel Runway Operation
Metar
CYYC 230000Z 15015G22KT 5SM FU OVC300 31/12 A2999 RMK FU2CI6 SLP133 DENSITY ALT 6200FT

Description

International airport serving Calgary, Alberta.

Climatology

Humid Continental climate (Köppen climate classification Dfb) - Variable weather patterns and a large seasonal temperature variance. Summers are often warm and humid with frequent thunderstorms and winters can be very cold with frequent snowfall and persistent snow cover.

Runways

Designator Length Width Surface Rops
7/25 1890 46 ASP Yes/Yes
10/28 2438 61 ASP Yes/Yes
16/34 3863 61 ASP Yes/Yes

SKYbrary Partners:

Safety knowledge contributed by: